This is the latest recevied weather packets stored in our database for station/object IR3AS. If no packets are shown the sender has not sent any weather packets the latest 10 day(s).
| Time | Temp. | Humidity | Pressure | Rain* | Wind** | Luminosity | Snow |
|---|---|---|---|---|---|---|---|
| 1787946297 | 13.33° C | 75% | 865.4 hPa | 0 mm | - | - | - |
| 1787945997 | 13.33° C | 75% | 866.7 hPa | 0 mm | - | - | - |
| 1787945698 | 13.33° C | 74% | 867 hPa | 0 mm | - | - | - |
| 1787945397 | 13.33° C | 73% | 866.7 hPa | 0 mm | - | - | - |
| 1787945097 | 13.89° C | 73% | 867.2 hPa | 0 mm | - | - | - |
| 1787944798 | 13.89° C | 73% | 867.7 hPa | 0 mm | - | - | - |
| 1787944497 | 13.89° C | 73% | 867.1 hPa | 0 mm | - | - | - |
| 1787944197 | 13.33° C | 73% | 867.4 hPa | 0 mm | - | - | - |
| 1787943897 | 12.78° C | 77% | 867.8 hPa | 0 mm | - | - | - |
| 1787943597 | 12.78° C | 80% | 869 hPa | 0 mm | - | - | - |
| 1787943338 | 12.22° C | 80% | 869 hPa | 0 mm | - | - | - |
| 1787943298 | 12.22° C | 80% | 869 hPa | 0 mm | - | - | - |
| 1787942997 | 12.22° C | 81% | 868.8 hPa | 0 mm | - | - | - |
| 1787942729 | 12.22° C | 81% | 868.2 hPa | 0 mm | - | - | - |
| 1787942697 | 12.22° C | 81% | 868.2 hPa | 0 mm | - | - | - |
| 1787942397 | 12.22° C | 84% | 867.7 hPa | 0 mm | - | - | - |
| 1787942098 | 12.22° C | 84% | 867.6 hPa | 0 mm | - | - | - |
| 1787941797 | 12.22° C | 84% | 866.7 hPa | 0 mm | - | - | - |
| 1787941497 | 12.22° C | 83% | 865.1 hPa | 0 mm | - | - | - |
| 1787941197 | 12.22° C | 83% | 867.9 hPa | 0 mm | - | - | - |
| 1787940897 | 12.22° C | 82% | 868.3 hPa | 0 mm | - | - | - |
| 1787940597 | 12.78° C | 82% | 868 hPa | 0 mm | - | - | - |
| 1787940331 | 12.78° C | 81% | 868.9 hPa | 0 mm | - | - | - |
| 1787940297 | 12.78° C | 81% | 868.9 hPa | 0 mm | - | - | - |
| 1787939997 | 12.78° C | 79% | 867.5 hPa | 0 mm | - | - | - |
* Rain latest hour (hover to see other rain measurements)
** Current wind speed in m/s (hover to see current wind gust speed)